User: anonymous   Login
Location: Sun City Center
(27.6996°N, 82.3528°W)
Time: 14:45:52
(UTC-04:00)
Language:

Cosmos 2084 Rocket - Orbit

View from above orbital plane
View from above orbital plane
View from above satellite
View from above satellite

Ground track
Ground track

The orbit data is extracted from the following two-line orbital elements,

1 20666U 90055D   17206.02426209 +.00000061 +00000-0 +23183-4 0  9998
2 20666 062.7845 020.5307 0129176 112.9273 248.5514 14.91952756466826
Epoch (UTC): 25 July 2017 00:34:56
Eccentricity: 0.0129176
inclination: 62.7845°
perigee height: 502 km
apogee height: 682 km
right ascension of ascending node: 20.5307°
argument of perigee: 112.9273°
revolutions per day: 14.91952756
mean anomaly at epoch: 248.5514°
orbit number at epoch: 46682

The dashed part of the orbit path shows where the satellite is in the earth's shadow,  

DLR